Regional Weather Roundup
Issued by NWS

Home | Current Version | Previous Version | Text Only | Print | Product List | Glossary Off
Versions: 1 2 3 4 5 6 7 8 9 10 11 12 13 14 15 16 17 18 19 20 21 22 23 24 25 26 27 28 29 30 31 32 33 34 35 36 37 38 39 40 41 42 43 44 45 46 47 48 49 50

000
ASUS43 KMKX 280400
RWRWI

WISCONSIN REGIONAL WEATHER ROUNDUP
NATIONAL WEATHER SERVICE MILWAUKEE/SULLIVAN WI
1000 PM CST MON FEB 27 2017

NOTE: "FAIR" INDICATES FEW OR NO CLOUDS BELOW 12,000 FEET WITH NO
SIGNIFICANT WEATHER AND/OR OBSTRUCTIONS TO VISIBILITY.

WIZ001-002-006>008-014>016-023>028-280500-
NORTHWEST WISCONSIN

CITY           SKY/WX    TMP DP  RH WIND       PRES   REMARKS
SUPERIOR ARPT  CLOUDY    30  28  92 NE6       29.91S WCI  24
ASHLAND        CLOUDY    25  23  92 NE3       29.92F FOG
HAYWARD        CLOUDY    33  18  53 S5        29.90S WCI  29
SIREN          CLOUDY    36  19  51 S8        29.88S WCI  30
CUMBERLAND     CLOUDY    32  21  64 SE7       29.89F WCI  26
RICE LAKE      CLOUDY    34  22  61 SE7       29.91F WCI  28
CHETEK         CLOUDY    32  22  64 SE3       29.91F
LADYSMITH      CLOUDY    36  20  53 SE6       29.94S WCI  31
EAU CLAIRE     NOT AVBL
MENOMONIE      CLOUDY    35  24  63 CALM      29.91R
NEW RICHMOND   CLOUDY    34  24  66 SE6       29.89S WCI  29
OSCEOLA        CLOUDY    36  25  63 SE8       29.90F WCI  30
$$

WIZ003>005-009-010-017-018-280500-
NORTH CENTRAL WISCONSIN

CITY           SKY/WX    TMP DP  RH WIND       PRES   REMARKS
MANITOWISH WTR MOCLDY    30  17  59 S6        29.93S WCI  24
ARBOR VITAE    CLOUDY    32  19  58 S6          N/A  WCI  26
WOODRUFF       CLOUDY    32  19  58 S6          N/A  WCI  26
RHINELANDER    CLOUDY    33  24  69 S3        29.97S
EAGLE RIVER    CLOUDY    30  20  64 S5        29.96S WCI  26
LAND O LAKES   CLOUDY    31  20  63 S3        29.97S
PHILLIPS       CLOUDY    32  20  60 S6        29.93S WCI  27
TOMAHAWK       CLOUDY    30  22  71 CALM      29.97S
MEDFORD        PTCLDY    33  26  73 SE7       29.94S WCI  27
MERRILL        NOT AVBL
$$

WIZ029-030-035-036-043>047-280500-
CENTRAL WISCONSIN

CITY           SKY/WX    TMP DP  RH WIND       PRES   REMARKS
WAUSAU         CLOUDY    32  26  78 SE7       29.97F WCI  26
MOSINEE        CLEAR     34  28  80 E7        29.99S WCI  28
MARSHFIELD     CLOUDY    35  28  75 E6        29.95S WCI  30
STEVENS POINT  PTCLDY    32  28  83 E5        30.00S WCI  27
WAUPACA        CLOUDY    33  29  87 E3        30.01F
WAUTOMA        CLOUDY    29  27  92 CALM      30.00
WISC RAPIDS    MOCLDY    34  30  85 SE7       29.98F WCI  28
CAMP DOUGLAS   NOT AVBL
$$

WIZ011>013-019>022-031-037>040-048>050-280500-
NORTHEAST WISCONSIN

CITY           SKY/WX    TMP DP  RH WIND       PRES   REMARKS
ANTIGO         CLOUDY    30  26  83 SE9       29.99S WCI  22
SHAWANO        CLOUDY    31  28  90 NE3       30.03F
OCONTO         CLOUDY    28  26  95 CALM      30.05F
STURGEON BAY   NOT AVBL
GREEN BAY      CLOUDY    32  30  92 CALM      30.04F
MANITOWOC      NOT AVBL
APPLETON       MOCLDY    34  28  80 CALM      30.00F
CLINTONVILLE   CLOUDY    32  28  86 CALM      30.02F
OSHKOSH        CLOUDY    34  30  85 S3        30.02F
$$

WIZ032>034-041-042-053>061-280500-
SOUTHWEST WISCONSIN

CITY           SKY/WX    TMP DP  RH WIND       PRES   REMARKS
LA CROSSE      MOCLDY    41  32  70 E6        29.93S
SPARTA         CLOUDY    35  31  85 CALM      29.96R
VIROQUA        MOCLDY    38  32  77 SE10      29.94R WCI  32
BOSCOBEL       CLOUDY    39  33  79 N3        29.95F
PRAIRIE DU CHI CLOUDY    43  32  65 E6        29.93F
PLATTEVILLE    CLOUDY    40  35  83 E7        29.97R
$$

WIZ056-057-062-063-064-067-068-280500-
SOUTH CENTRAL WISCONSIN

CITY           SKY/WX    TMP DP  RH WIND       PRES   REMARKS
REEDSBURG      CLOUDY    37  32  82 SE5       29.96F WCI  33
BARABOO/DELLS  CLOUDY    39  31  72 CALM      29.97F
LONE ROCK      NOT AVBL
MINERAL POINT  PTCLDY    43  34  70 E7        29.96S
MADISON        CLOUDY    42  32  67 S5        29.99F
MIDDLETON      CLOUDY    40  33  76 CALM      29.99F
WATERTOWN      CLOUDY    39  33  80 E8        30.01F WCI  34
MONROE         MOCLDY    41  32  70 E7        29.97F
JANESVILLE     CLOUDY    41  34  75 E6        29.99F
$$

WIZ051-052-058>065-066-070>072-280500-
SOUTHEAST WISCONSIN

CITY           SKY/WX    TMP DP  RH WIND       PRES   REMARKS
MILWAUKEE      CLOUDY    44  34  67 SE9       30.03F
WAUKESHA       CLOUDY    37  32  81 SE6       30.03F WCI  33
MILWAUKEE/TIMM CLOUDY    41  32  70 SE3       30.05F
RACINE         PTCLDY    41  34  76 S10       30.05F
KENOSHA        CLOUDY    44  34  67 SE14      30.03F
FOND DU LAC    CLOUDY    36  29  75 SE6       30.02F WCI  31
SHEBOYGAN      PTCLDY    32  30  92 CALM      30.05F FOG
WEST BEND      CLOUDY    34  32  93 CALM      30.04F
JUNEAU         CLOUDY    37  32  82 SE8       30.03F WCI  31
$$

LSZ147-162-280500-
LAKE SUPERIOR

STATION/POSITION TIME  TEMP    WIND        PRES    WAVE
                       AIR SEA DIR/SP/G            HT/PER
                 (UTC) (F)     (DEG/KT/KT) (MB)    (FT/S)
DEVILS ISLAND    0300   31     100/  7/  8 1014.7S
PORT WING        0330   29      40/  5/  5 1012.9F
SAXON HARBOR     0240   26     180/  1/  2 1013.2F
$$

LMZ867-665-643>646-280500-
LAKE MICHIGAN

STATION/POSITION TIME  TEMP    WIND        PRES    WAVE
                       AIR SEA DIR/SP/G            HT/PER
                 (UTC) (F)     (DEG/KT/KT) (MB)    (FT/S)
CHAMBERS ISLAND  0340   34     170/  2/  6 1017.6S
NORTHPORT PIER   0340   34     150/  5/  7 1017.9F
SISTER BAY       0250   34     160/  8/ 10   N/A
ALGOMA LAKESHORE 0256          180/  3/  5   N/A
KEWAUNEE LAKESHO 0330   35     180/  1/  4 1017.7F
SHEBOYGAN LAKESH 0300   37     170/  7/  8 1018.7R
PORT WASHINGTON  0340   38     160/  1/  3 1019.0S
MILWAUKEE LAKESH 0320   40     150/  8/  8   N/A
KENOSHA   LAKESH 0300   40     180/ 12/ 14 1017.9
$$

TC  - TEMPERATURE IN CELSIUS
VSB - VISIBILITY IN STATUTE MILES
WCI - WIND CHILL INDEX
HX  - HEAT INDEX





USA.gov is the U.S. government's official web portal to all federal, state and local government web resources and services.